IRAS DEB

Satellite information

Favourite Embed

Satellite Type and Status

DEBRISIN ORBIT

Key statistics

Satellite IRAS DEB at a glance.

Uptime

15448

Days in orbit

Revolutions

≈ 14.0

Per day

Orbit

SSO

Sun Synchronous Orbit

Inclination

99.0

Latest

Satellite identification and parameters

Extended collection of information and parameters for IRAS DEB.

Object identification

Identified? True

Debris? True

Object name: IRAS DEB

International designator: 1983-004C

Object number (NORAD): 13783

Object ID (CCSDS): 13783

Country: UNITED STATES OF AMERICA (US)

Current information (Y/N): Y

RCS size: MEDIUM

Orbital parameters

Period: 102.493 minutes

Inclination: 98.9734 deg

SMA: 7254.756 km

Apoapsis: 888.276 km

Periapsis: 864.966 km

RAAN: 316.1735 deg

Eccentricy: 0.0016065

Argument of periapsis: 346.1717 deg

Mean anomaly: 37.1872 deg

Mean motion: 14.04974786 rev/day

Mean motion (dot): 0.00000367 rev/day2

B* drag term: 0.00025551 1/REarth

Two-line elements (TLE)

Creation date: May 12, 2025, 7:41 p.m.

Reference frame: TEME

Reference center: EARTH

Epoch: May 12, 2025, 12:04 p.m. UTC

TLE line 0: 0 IRAS DEB

TLE line 1: 1 13783U 83004C 25132.50345852 .00000367 00000-0 25551-3 0 9999

TLE line 2: 2 13783 98.9734 316.1735 0016065 346.1717 37.1872 14.04974786163689

Live tracking on map

Real-time ground track for satellite IRAS DEB.

In-orbit conjunctions

A list of the most updated potential collisions computed for object IRAS DEB.

Target Orbit TCA Probability of collision Miss distance Type
FENGYUN 1C DEB SSO 2025-03-15 20:02:10 0.0001429667 336.0 (m) DEBRIS

Associated space launch

Astronomy satellite dedicated to infrared full-sky surveying

IRAS DEB was lifted into orbit during the mission ‘Delta 3910 | IRAS’, on board a Delta 3910 space rocket.

The launch took place on Jan. 26, 1983, 2:17 a.m. from Space Launch Complex 2W.

For more information about the launch, click the button.

Launch to space Delta 3910 | IRAS
Delta 3910 | IRAS

Agency: N/A

Status: Launch Successful

Launch date: Jan. 26, 1983, 2:17 a.m. UTC

Rocket: Delta 3910

Launch pad: Space Launch Complex 2W

Location: Vandenberg SFB, CA, USA

...

Latest news about this satellite

There are no fresh news available about this satellite. Check back as we update our databases every day.


Newsletter sign-up

Weekly statistics, charts and insights to help you stay on top of the space industry.